DW0108 Weather Reports


Display with metric or nautical units.
time (UTC)temp
F
wind
direction
speed
MPH
gust
MPH
rain 1hr
in
rain 24hr
in
rain mn
in
humidity
%
barometer
mb
20211017183819 72 191 0.0 0.0 0.00 0.00 0.00 29 1008.4
20211017182842 72 153 0.0 0.0 0.00 0.00 0.00 34 1008.4
20211017181845 71 185 0.0 0.0 0.00 0.00 0.00 31 1008.4
20211017180847 71 166 0.0 0.0 0.00 0.00 0.00 30 1008.4
20211017175825 71 190 0.0 1.0 0.00 0.00 0.00 34 1008.4
20211017174828 71 155 0.0 1.0 0.00 0.00 0.00 35 1008.4
20211017172826 70 115 0.0 0.0 0.00 0.00 0.00 37 1008.4
20211017171846 70 105 0.0 0.0 0.00 0.00 0.00 37 1008.4
20211017170806 69 139 0.0 0.0 0.00 0.00 0.00 37 1008.4
20211017165838 69 163 0.0 0.0 0.00 0.00 0.00 39 1008.4
20211017161844 65 200 0.0 0.0 0.00 0.00 0.00 45 1008.4
20211017160838 65 191 0.0 0.0 0.00 0.00 0.00 51 1008.4
20211017153808 61 138 0.0 0.0 0.00 0.00 0.00 64 1008.4
20211017152809 60 106 0.0 0.0 0.00 0.00 0.00 68 1008.4
20211017151806 57 20 0.0 0.0 0.00 0.00 0.00 75 1008.4
20211017150840 56 20 0.0 0.0 0.00 0.00 0.00 79 1008.4
20211017141807 48 15 0.0 0.0 0.00 0.00 0.00 88 1008.4
20211017135847 46 15 0.0 0.0 0.00 0.00 0.00 87 1008.4
20211017134831 45 15 0.0 0.0 0.00 0.00 0.00 86 1008.4
20211017133832 45 15 0.0 0.0 0.00 0.00 0.00 86 1008.4
20211017132805 44 15 0.0 0.0 0.00 0.00 0.00 86 1008.4
20211017131844 44 15 0.0 0.0 0.00 0.00 0.00 85 1008.4
20211017130806 44 15 0.0 0.0 0.00 0.00 0.00 85 1008.4
20211017124832 44 15 0.0 0.0 0.00 0.00 0.00 85 1008.4
20211017123824 44 15 0.0 0.0 0.00 0.00 0.00 85 1008.4
20211017122848 44 15 0.0 0.0 0.00 0.00 0.00 85 1008.4
20211017115831 44 15 0.0 0.0 0.00 0.00 0.00 84 1008.4
20211017114814 44 15 0.0 0.0 0.00 0.00 0.00 84 1008.4
20211017113844 44 15 0.0 0.0 0.00 0.00 0.00 84 1008.4
20211017112810 44 15 0.0 0.0 0.00 0.00 0.00 84 1008.4
20211017111820 45 15 0.0 0.0 0.00 0.00 0.00 84 1008.4
20211017104819 45 15 0.0 0.0 0.00 0.00 0.00 83 1008.4
20211017103824 45 15 0.0 0.0 0.00 0.00 0.00 83 1008.4
20211017101825 45 15 0.0 0.0 0.00 0.00 0.00 82 1008.4
20211017100827 45 15 0.0 0.0 0.00 0.00 0.00 83 1008.4
20211017095837 45 15 0.0 0.0 0.00 0.00 0.00 83 1008.4
20211017094843 46 15 0.0 0.0 0.00 0.00 0.00 82 1008.4
20211017092837 46 15 0.0 0.0 0.00 0.00 0.00 82 1008.4
20211017091842 46 15 0.0 0.0 0.00 0.00 0.00 82 1008.4
20211017085806 46 15 0.0 0.0 0.00 0.00 0.00 81 1008.4
20211017082825 47 15 0.0 0.0 0.00 0.00 0.00 81 1008.4
20211017081823 47 15 0.0 0.0 0.00 0.00 0.00 80 1008.4
20211017080822 47 15 0.0 0.0 0.00 0.00 0.00 80 1008.4
20211017075843 47 15 0.0 0.0 0.00 0.00 0.00 80 1008.4
20211017072826 47 15 0.0 0.0 0.00 0.00 0.00 80 1008.4
20211017071832 48 15 0.0 0.0 0.00 0.00 0.00 79 1008.4
20211017070835 48 15 0.0 0.0 0.00 0.00 0.00 79 1008.4
20211017065835 48 15 0.0 0.0 0.00 0.00 0.00 79 1008.4
20211017064829 48 15 0.0 0.0 0.00 0.00 0.00 78 1008.4
20211017060838 49 15 0.0 0.0 0.00 0.00 0.00 76 1008.4
20211017055815 49 15 0.0 0.0 0.00 0.00 0.00 75 1008.4
20211017053816 50 15 0.0 0.0 0.00 0.00 0.00 76 1008.4
20211017051830 50 15 0.0 0.0 0.00 0.00 0.00 76 1008.4
20211017045815 51 15 0.0 0.0 0.00 0.00 0.00 74 1008.4
20211017044840 51 15 0.0 0.0 0.00 0.00 0.00 74 1008.4
20211017042822 52 15 0.0 0.0 0.00 0.00 0.00 74 1008.4
20211017041835 52 15 0.0 0.0 0.00 0.00 0.00 73 1008.4
20211017035834 53 15 0.0 0.0 0.00 0.00 0.00 71 1008.4
20211017031828 54 15 0.0 0.0 0.00 0.00 0.00 69 1008.4
20211017030818 54 15 0.0 0.0 0.00 0.00 0.00 67 1008.4
20211017025804 55 15 0.0 0.0 0.00 0.00 0.00 66 1008.4
20211017024814 55 15 0.0 1.0 0.00 0.00 0.00 65 1008.4
20211017022835 56 15 0.0 0.0 0.00 0.00 0.00 62 1008.4
20211017021821 57 15 0.0 0.0 0.00 0.00 0.00 60 1008.4
20211017015815 58 15 0.0 0.0 0.00 0.00 0.00 56 1008.4
20211017014833 59 15 0.0 0.0 0.00 0.00 0.00 55 1008.4
20211017012838 61 15 0.0 0.0 0.00 0.00 0.00 54 1008.4
20211017004828 65 15 0.0 0.0 0.00 0.00 0.00 46 1008.4
20211017003847 66 15 0.0 0.0 0.00 0.00 0.00 39 1008.4
20211017002827 66 15 0.0 0.0 0.00 0.00 0.00 36 1008.4
20211017001815 66 15 0.0 0.0 0.00 0.00 0.00 35 1008.4
20211016233815 68 15 0.0 0.0 0.00 0.00 0.00 31 1008.4
20211016232811 69 206 0.0 0.0 0.00 0.00 0.00 29 1008.4
20211016231821 69 35 2.0 10.0 0.00 0.00 0.00 29 1008.4
20211016224839 70 103 0.0 1.0 0.00 0.00 0.00 29 1008.4
20211016215821 72 85 0.0 5.0 0.00 0.00 0.00 25 931.5
20211016214833 72 22 0.0 0.0 0.00 0.00 0.00 26 931.5
20211016204836 72 115 1.0 9.0 0.00 0.00 0.00 25 896.0
20211016202841 72 137 0.0 1.0 0.00 0.00 0.00 25 896.0
20211016195834 71 234 1.0 7.0 0.00 0.00 0.00 25 896.0
20211016194831 71 25 0.0 3.0 0.00 0.00 0.00 28 896.0
20211016193819 72 148 1.0 9.0 0.00 0.00 0.00 26 896.0
20211016191806 71 118 0.0 0.0 0.00 0.00 0.00 33 896.0
20211016190847 71 159 1.0 7.0 0.00 0.00 0.00 31 896.0
20211016185805 71 85 1.0 10.0 0.00 0.00 0.00 36 896.0